Location: ??????
(41.3164°N, 22.6615°E)
Time: 09:14:59
(UTC+00:00)

Cosmos 1703 - Pass Details

Date: 16 October 2021
Orbit: 521 x 538 km, 82.5° (Epoch: 07 December)

Event Time Altitude Azimuth Distance (km) Brightness Sun altitude
Rises 16:29:04 0° 3° (N) 2,694 6.8 -8.7°
Reaches altitude 10° 16:31:29 10° 16° (NNE) 1,795 5.7 -9.1°
Maximum altitude 16:34:53 27° 75° (ENE) 1,038 4.2 -9.8°
Drops below altitude 10° 16:38:14 10° 135° (SE) 1,773 5.5 -10.4°
Sets 16:40:36 0° 148° (SSE) 2,654 6.5 -10.8°
